Orbital Elements at Epoch 2459000.5 (2020-May-31.0) TDB
Reference: JPL 5 (heliocentric ecliptic J2000)
Element | Value | Uncertainty (1-sigma) | Units |
e | .4705555642487825 | 2.9909e-06 | |
a | 3.492370461892278 | 3.2958e-07 | au |
q | 1.849016108630776 | 1.0603e-05 | au |
i | 22.64587816869231 | 0.00019333 | deg |
node | 28.8787700778575 | 1.8863e-05 | deg |
peri | 316.6947366130846 | 0.00068815 | deg |
M | 353.5466935043397 | 0.00013918 | deg |
tp | 2459043.232537041585 (2020-Jul-12.73253704) | 0.00092748 | TDB |
period | 2383.849790075175 6.53 | 0.00033745 9.239e-07 | d yr |
n | .1510162265671309 | 2.1377e-08 | deg/d |
Q | 5.135724815153779 | 4.8466e-07 | au |
|
| | Orbit Determination Parameters
Additional Information
|